Tracking 17142 objects as of 28-May-2015
HD Live streaming from Space Station

COSMOS 2251 DEB

Track COSMOS 2251 DEB now!
10-day predictions
COSMOS 2251 DEB is classified as:


NORAD ID: 33899
Int'l Code: 1993-036DC
Perigee: 695.5 km
Apogee: 805.0 km
Inclination: 74.1 °
Period: 99.7 minutes
Semi major axis: 7121 km
RCS: 0.032 m2 (small)
Launch date: June 16, 1993
Source: Commonwealth of Independent States (former USSR) (CIS)

Note: This is SATELLITE DEBRIS
Your satellite tracking list
Your tracking list is empty





NASA's NSSDC Master Catalog

Two Line Element Set (TLE):
1 33899U 93036DC  15146.28712925  .00001170  00000-0  33333-3 0  9993
2 33899 074.0597 095.9734 0076827 059.4990 107.4251 14.44667044330498

Source of the keplerian elements: AFSPC

N2YO: 324